EHI
1 2 2 1 0 1 3 5 6 6 6 4 1 0 0 0 0 0 0 1 1 1 1 0 0 0 0 0 0 0 0 0 0 0 0 0 0 1 2 2 1 0 0
0 1 1 0 0 1 1 2 3 4 5 4 2 0 0 0 0 0 0 1 1 0 0 0 0 0 0 0 0 0 0 0 0 0 0 0 0 0 1 1 0 0 0
0 0 0 1 1 2 1 1 1 2 3 3 2 1 0 0 0 0 0 0 0 0 0 0 0 0 0 0 0 0 0 0 0 0 0 0 0 0 0 0 0 0 0
0 0 0 1 2 2 2 2 1 1 1 1 2 1 0 0 0 0 0 0 0 0 0 0 0 0 0 0 0 0 0 0 0 0 0 0 0 0 0 0 0 0 0
0 0 0 1 1 2 3 3 2 0 0 1 2 1 0 0 0 0 0 0 0 0 0 0 0 0 0 0 0 0 1 1 1 0 0 0 0 1 1 0 0 0 0
0 0 0 0 1 2 3 2 1 0 0 1 1 1 0 1 1 0 0 0 0 0 0 0 0 0 0 0 0 0 1 1 1 0 0 0 0 0 1 1 0 0 0
0 0 0 0 1 2 2 1 0 0 0 0 0 0 0 1 1 1 0 0 0 0 0 0 0 0 0 0 0 0 0 0 0 0 0 0 0 0 0 0 0 0 0
0 0 0 0 1 1 1 0 0 0 0 0 0 0 0 1 1 1 0 0 0 0 0 0 0 0 0 0 0 0 0 0 0 0 0 0 0 0 0 0 0 0 0
0 0 0 0 1 1 0 0 0 0 0 0 0 0 0 0 0 0 0 0 0 0 0 0 0 0 0 0 0 0 0 0 0 0 0 0 0 0 0 0 1 0 0
0 0 0 0 1 1 0 0 1 1 1 0 0 0 0 0 0 0 0 0 0 0 1 1 0 0 0 0 0 0 0 1 0 0 0 0 0 0 0 0 0 0 0
0 0 0 0 1 1 0 0 1 2 1 0 0 0 0 0 0 0 0 0 0 0 1 2 1 0 0 0 0 0 0 0 0 0 0 0 0 0 0 0 0 0 0
0 0 0 0 0 0 0 0 1 1 1 0 0 0 0 0 0 0 0 0 0 0 1 1 1 0 0 0 0 0 0 0 0 0 0 0 0 1 0 1 1 1 0
0 0 0 0 0 0 0 0 0 0 0 0 0 0 0 0 0 0 0 0 0 0 0 0 0 0 0 0 0 0 0 0 0 0 0 0 1 2 2 1 2 1 1
0 0 0 0 0 0 0 0 0 0 0 0 0 0 0 0 0 0 0 0 0 0 0 0 0 0 0 0 0 0 0 0 0 0 0 0 1 3 3 2 1 1 0
0 0 0 0 0 0 0 0 0 0 0 0 0 0 0 0 0 0 0 0 0 0 0 0 0 0 0 0 0 0 0 0 0 0 0 0 1 3 4 4 2 0 0
0 0 0 0 0 0 0 0 0 0 0 0 0 0 0 0 0 0 0 0 0 0 0 0 0 0 0 0 0 0 0 0 0 0 0 0 1 1 3 4 2 0 0
0 0 0 0 0 0 0 0 0 0 0 0 0 0 0 0 0 0 0 0 0 0 0 0 0 0 0 0 0 0 0 0 0 0 0 0 0 1 2 3 2 1 1
1 1 1 1 0 0 0 0 1 1 0 0 0 0 0 0 0 0 0 0 0 0 0 0 0 0 0 0 0 0 0 0 0 0 0 0 0 0 1 1 2 2 2
5 4 4 3 1 0 0 0 1 1 1 1 1 0 0 0 0 0 0 0 0 0 0 0 0 0 0 0 0 0 0 0 0 0 0 0 0 0 0 0 1 1 1
10 9 9 7 4 1 0 0 1 1 1 1 1 1 0 0 0 0 0 0 0 0 0 0 0 0 0 0 0 0 0 0 0 0 0 0 0 0 0 0 0 0 0
16 16 15 12 9 6 4 2 1 1 1 1 2 1 0 0 0 0 0 0 0 0 0 0 0 0 0 0 0 0 0 0 0 0 0 0 0 0 0 0 0 0 0
20 22 21 19 18 15 10 5 2 1 1 2 2 1 0 0 0 0 0 0 0 0 0 0 0 0 0 0 0 0 0 0 0 0 0 0 0 0 0 0 0 0 0
22 24 25 23 22 20 15 12 10 7 5 3 2 0 0 0 0 0 0 0 0 0 0 0 0 0 0 0 0 0 0 0 0 0 0 0 0 0 0 0 0 0 0
23 23 24 24 22 20 20 21 20 14 8 4 2 1 0 0 1 1 0 0 0 0 0 0 0 0 1 1 0 0 0 0 0 0 0 0 0 0 0 0 0 0 0
23 23 24 23 21 19 20 24 24 15 7 4 3 1 0 0 1 1 0 0 0 0 0 0 0 1 2 1 0 0 0 0 0 0 0 0 0 0 0 0 0 0 0
23 25 25 23 20 17 16 20 21 14 5 3 3 2 1 0 1 1 0 0 0 0 1 1 1 1 2 1 0 0 0 0 0 0 0 0 0 0 0 0 0 0 0
Wind_Speed
1 3 10 12 13 14 15 15 16 16 17 17 17 17 17 17 17 16 16 15 15 15 15 15 14 14 14 14 13 13 12 12 13 13 13 12 12 12 13 13 13 10 13
4 4 10 12 13 14 14 15 15 15 16 16 16 16 16 16 16 15 15 15 14 14 14 14 14 14 14 14 13 13 12 12 12 12 12 11 12 12 13 13 12 9 13
5 5 8 12 13 13 14 14 14 15 15 15 15 15 15 15 15 15 14 14 14 14 14 14 13 13 13 13 12 12 12 12 12 12 11 7 8 12 13 13 13 13 13
6 5 7 12 12 13 13 14 14 15 15 14 14 14 14 14 14 14 13 13 13 13 13 13 13 13 12 12 12 11 11 12 12 11 6 6 6 11 12 13 13 13 12
6 5 7 12 12 12 13 13 13 14 14 14 13 13 13 13 13 13 12 12 12 12 12 12 12 12 12 11 11 11 11 12 11 9 6 5 5 10 12 12 12 12 12
5 4 6 12 12 12 12 12 13 13 13 13 13 12 12 12 12 12 12 11 11 12 12 12 12 11 11 10 10 10 11 11 10 6 6 5 5 9 11 11 12 11 11
5 4 5 11 11 11 11 11 12 12 12 12 12 12 11 11 11 11 11 11 11 11 11 11 11 10 10 9 9 9 10 11 7 6 5 5 5 9 10 11 11 11 11
5 4 5 10 10 10 10 11 11 11 12 11 11 11 11 11 11 10 10 10 10 10 10 10 10 9 8 8 8 9 9 9 8 6 5 5 7 8 10 10 10 10 10
5 4 3 4 6 9 10 10 10 10 11 11 10 10 10 10 10 9 9 9 9 9 8 8 8 8 8 7 7 8 9 9 6 4 5 4 7 9 9 10 10 10 10
4 4 4 4 4 4 5 9 10 10 10 9 9 9 9 8 8 8 7 7 7 7 7 6 7 7 6 6 6 7 8 7 4 4 3 4 8 9 10 9 9 9 10
4 3 3 4 4 4 3 6 7 8 8 7 6 8 6 4 4 4 5 6 6 6 5 5 5 5 6 5 5 7 6 3 3 2 2 6 8 9 9 9 9 9 9
4 3 2 3 3 3 3 3 3 3 3 3 3 4 3 3 2 3 3 4 4 4 4 4 5 5 4 2 3 5 2 3 3 2 3 6 8 8 9 9 9 9 9
4 4 3 3 3 3 2 2 2 2 2 2 3 3 2 2 2 2 2 2 3 3 3 3 3 2 2 2 1 2 2 2 2 2 3 6 7 8 8 9 9 9 9
5 4 4 3 3 2 2 2 2 2 1 1 1 2 2 1 1 1 1 1 2 1 1 1 1 1 1 1 2 2 2 2 2 2 2 6 7 8 8 8 8 8 8
5 5 5 4 4 3 2 2 2 2 2 2 1 1 1 1 1 0 0 1 1 1 0 0 0 1 0 0 1 2 2 3 3 3 2 6 7 8 8 9 9 9 9
7 6 5 5 5 4 3 3 2 2 2 2 1 2 2 1 1 1 0 0 0 0 0 0 0 0 0 0 0 1 2 2 3 3 2 3 7 8 8 9 10 10 10
7 6 5 6 5 5 4 4 2 2 2 2 2 2 2 2 2 1 1 1 1 0 0 0 0 0 0 0 1 1 1 2 2 3 3 2 3 6 8 9 9 10 10
6 6 6 6 6 5 4 4 2 2 3 2 2 2 2 3 3 2 1 1 1 0 1 1 1 0 0 0 1 1 1 1 2 3 3 2 2 2 5 9 9 9 9
8 7 7 6 6 6 5 3 3 2 2 2 2 2 2 3 3 2 2 1 1 1 1 1 1 1 1 1 1 1 1 2 2 3 3 3 3 3 3 5 7 8 9
7 6 7 6 6 5 3 2 1 1 1 2 2 2 3 3 3 2 1 1 1 1 1 1 1 1 1 1 1 0 0 1 2 2 3 3 3 4 4 4 3 5 8
6 7 7 7 6 5 3 3 2 2 1 1 2 3 3 3 3 3 2 1 1 1 1 1 1 1 1 1 1 1 1 1 1 1 2 2 3 4 4 4 3 3 3
8 8 7 7 7 6 4 3 2 2 2 2 1 2 3 3 3 3 3 2 2 1 1 1 1 1 0 1 2 1 1 2 1 1 1 2 3 2 4 5 5 5 4
8 9 8 7 6 6 5 3 2 1 1 1 1 1 2 3 3 3 3 3 2 2 2 2 2 2 2 1 1 2 2 2 1 1 1 2 2 2 3 3 5 5 6
9 8 7 7 7 6 6 5 5 4 3 3 2 2 2 3 3 3 4 3 3 2 3 3 3 2 3 2 1 1 2 2 2 1 1 1 2 2 3 3 4 4 5
7 7 6 7 6 6 6 6 5 4 3 2 2 2 2 2 3 3 3 3 3 3 3 3 2 3 3 3 2 2 1 1 2 2 2 2 1 2 2 3 3 3 4
6 6 6 6 6 5 6 6 6 6 4 3 3 3 2 2 2 3 3 3 3 2 3 3 3 3 3 3 2 2 3 2 2 3 3 2 2 2 2 2 3 3 3
Wind_Direction
99 111 113 109 105 104 104 103 102 103 104 107 108 110 114 115 114 114 113 114 114 114 114 114 114 115 117 116 115 115 116 117 118 120 120 120 119 119 116 111 109 109 112
125 116 115 110 107 105 105 105 105 105 105 106 107 109 111 113 114 114 114 114 113 114 114 113 113 115 116 116 116 117 117 117 117 119 118 120 122 120 116 116 116 116 117
109 105 112 112 109 107 106 107 107 107 106 107 107 108 111 113 115 115 115 114 113 113 113 113 114 116 116 116 117 117 116 115 114 113 108 105 115 119 120 121 119 117 116
111 104 116 115 112 110 109 108 109 109 109 108 107 107 110 114 115 115 114 113 113 113 113 113 114 115 117 117 116 115 115 113 112 107 93 98 111 121 123 122 119 119 119
103 105 124 119 116 113 112 111 111 111 111 110 109 108 109 114 115 115 115 115 114 115 114 113 112 113 114 114 116 117 118 116 112 102 93 92 101 123 122 121 121 121 121
105 109 126 122 118 116 114 113 114 115 115 113 113 112 110 110 113 116 114 112 115 114 114 112 112 113 113 114 118 120 121 120 110 102 101 104 108 124 124 125 125 125 125
111 112 124 123 120 119 118 117 118 118 118 116 116 114 112 110 108 115 113 110 109 111 111 111 112 112 113 116 119 120 124 123 113 108 108 111 121 127 129 129 128 128 129
116 108 118 126 125 123 122 122 122 122 119 118 117 115 114 112 111 111 111 110 109 109 110 113 114 114 114 115 118 121 123 123 120 120 117 120 131 134 136 135 134 133 131
104 98 92 105 118 126 127 126 125 124 120 120 120 118 115 113 112 112 110 110 111 111 111 112 113 117 117 117 121 124 125 126 120 126 132 131 141 142 141 138 138 136 134
95 91 88 80 83 96 116 128 128 126 125 124 123 119 116 113 111 111 108 112 113 112 112 111 113 119 119 119 123 123 124 123 122 127 129 146 150 149 146 144 144 141 138
117 87 91 92 89 91 105 126 125 127 125 121 120 118 101 72 76 89 107 112 113 112 111 109 108 111 111 111 116 119 113 115 124 132 140 160 160 156 151 150 150 147 144
157 147 122 119 114 106 114 93 79 86 87 83 80 85 79 73 65 78 81 99 97 90 86 90 98 95 91 85 99 104 108 127 135 151 164 171 169 163 160 158 155 154 152
165 166 155 147 132 119 101 100 82 76 81 85 88 87 80 66 51 46 40 41 44 51 46 54 64 72 88 102 104 119 135 140 156 169 178 181 179 173 168 166 163 163 163
165 177 167 161 145 140 123 113 114 109 111 118 114 111 102 86 63 48 48 35 39 42 43 43 61 67 76 111 144 153 158 157 162 171 195 192 188 184 179 175 172 172 173
178 184 179 172 170 163 147 154 148 155 163 161 146 144 144 138 144 85 45 40 30 43 63 50 39 48 50 90 161 169 171 179 179 179 193 202 196 192 189 184 181 182 183
188 190 183 184 182 171 171 176 169 169 169 166 177 187 179 169 175 171 185 298 290 271 240 194 206 173 130 156 192 175 181 186 193 184 187 212 208 199 198 192 191 191 191
190 186 185 189 182 179 184 187 177 178 173 183 194 192 183 177 177 180 187 242 256 191 153 257 10 56 182 172 176 188 181 190 193 188 188 198 213 209 201 199 200 201 201
182 182 189 192 181 185 186 184 175 178 178 185 188 190 184 182 180 182 195 225 227 154 152 187 193 189 221 182 194 215 192 198 206 195 192 198 206 215 215 212 208 206 208
185 182 184 185 176 181 181 176 175 173 182 181 178 183 186 188 184 181 201 219 190 153 190 216 181 182 193 207 216 211 200 205 212 204 200 206 210 211 217 227 221 215 215
186 182 185 183 175 164 153 146 149 162 181 179 181 188 189 190 182 173 190 197 171 165 209 206 196 196 184 185 189 233 277 233 219 212 213 212 215 216 215 222 226 227 224
185 186 189 185 174 156 146 157 165 193 188 189 197 197 194 194 187 175 188 187 181 191 208 197 180 165 182 142 113 20 354 334 242 235 224 220 226 223 217 217 220 226 231
193 193 191 191 179 173 170 164 166 163 176 182 188 196 201 198 193 192 189 198 188 188 190 189 172 142 122 131 141 112 6 348 336 270 221 219 230 228 228 224 218 221 226
196 194 192 190 187 180 167 140 119 99 82 129 190 212 218 206 202 201 195 196 197 194 202 210 190 179 181 175 167 154 154 225 304 318 262 226 223 225 235 231 225 225 224
199 195 186 183 189 183 168 173 179 185 197 206 198 201 217 215 212 207 204 200 202 205 208 216 201 189 179 194 181 184 175 167 173 300 314 275 244 237 238 235 233 227 221
189 187 186 184 186 182 181 183 184 196 201 191 185 198 219 227 220 213 204 205 209 210 213 214 205 194 192 193 185 172 163 172 191 195 263 295 293 251 239 236 234 230 223
180 181 183 184 189 183 186 184 188 193 192 191 196 203 224 229 224 223 212 212 217 217 222 221 216 202 200 196 195 188 179 183 191 192 223 254 275 281 254 235 234 233 223